Weather in Krasnozyorskoe

Russia / Novosibirsk Oblast     53°59′01″N   79°14′18″E
temp.,
°C
wind,
m/s
gust,
m/s
humid.,
%
clouds,
%
prec.,
mm/h
press.,
hPa
HPBL,
m
1 march, mon
mon101:00−8se61194100 0.4 1014377
04:00−6ese5996100 1.6 1009288
07:00−3se229899 2.8 100745
10:00−3wsw249798 0.3 1007177
13:00−1w259899 1.3 1006317
16:000wsw410100100 1.5 1006543
19:000wsw61098100 2.9 1007571
22:00−3nw2497100 1.4 1008162
2 march, tue
tue201:00−8nw239695 1.8 101042
04:00−12wnw359693 0.2 1012133
07:00−16wnw349890 0.3 101548
10:00−18w3398100 0.0 101670
13:00−14wsw249397 0.1 1017246
16:00−12wsw2492100 0.0 1016341
19:00−13w129698 0.2 101621
22:00−15sw119697 0.1 101620
3 march, wed
wed301:00−15sw229693 0.2 101621
04:00−15sw229784 0.1 101621
07:00−15sw229790 0.3 101722
10:00−14sw249696 0.1 1017158
13:00−11sw469292 0.2 1018378
16:00−11sw5791100 0.1 1019500
19:00−15ssw51094100 0.1 1020333
22:00−15s6129397 0.0 1020298
4 march, thu
thu401:00−12s7139399 0.1 1019376
04:00−10ssw71393100 0.4 1017478
07:00−9ssw71393100 0.8 1017447
10:00−8ssw81492100 0.3 1016472
13:00−6ssw91493100 0.6 1015618
16:00−4ssw91592100 0.3 1014710
19:00−3ssw91689100 0.5 1013736
22:00−3ssw91685100 0.0 1011629
5 march, fri
fri501:00−4ssw8168798 0.1 1011523
04:00−6s7158798 0.0 1008428
07:00−6ssw7129599 0.4 1007425
10:00−3sw71294100 0.9 1007562
13:00−2w91288100 1.3 1010913
16:00−5wsw7128575 0.0 1016811
19:00−8sw7148856 0.0 1019450
22:00−7ssw9178499 0.0 1018774